Change the Weather History Date:

Sunday, December 16, 2012

  Actual Average Record
Temperature  
Mean Temperature 52 °F -  
Max Temperature 57 °F 56 °F 71 °F (2011)
Min Temperature 48 °F 36 °F 17 °F (2004)
Degree Days  
Heating Degree Days 12    
Growing Degree Days 2 (Base 50)    
Moisture  
Dew Point 52 °F    
Average Humidity 98    
Maximum Humidity 100    
Minimum Humidity 94    
Precipitation  
Precipitation 0.24 in - - ()
Sea Level Pressure  
Sea Level Pressure 30.03 in    
Wind  
Wind Speed 1 mph (SW)    
Max Wind Speed 8 mph    
Max Gust Speed -    
Visibility 5 miles    
Events Rain , Thunderstorm    
Averages and records for this station are not official NWS values.
T = Trace of Precipitation, MM = Missing Value Source: NWS Daily Summary

Daily Weather History Graph

Daily Weather History Graph

Search for Another Location

Airport or City:

Trip Planner

Search our weather history database for the weather conditions in past years. The results will help you decide how hot, cold, wet, or windy it might be!

Date:

Astronomy

Dec. 16, 2012 Rise Set
Actual Time 7:18 AM EST 5:05 PM EST
Civil Twilight 6:49 AM EST 5:34 PM EST
Nautical Twilight 6:18 AM EST 6:05 PM EST
Astronomical Twilight 5:47 AM EST 6:36 PM EST
Moon 9:56 AM EST (12/16) 9:10 PM EST (12/16)
Length of Visible Light 10h 44m
Length of Day
9h 47m
Waxing Crescent, 16% of the Moon is Illuminated
Dec 16
Waxing Crescent
Dec 20
First Quarter
Dec 28
Full
Jan 4
Last Quarter
Jan 11
New

Hourly Weather History & Observations

Time (EST) Temp. Dew Point Humidity Pressure Visibility Wind Dir Wind Speed Gust Speed Precip Events Conditions
12:03 AM 48.2 °F 48.2 °F 100% 30.11 in 8.0 mi Calm Calm - N/A   Overcast
12:14 AM 48.2 °F 48.2 °F 100% 30.11 in 8.0 mi Calm Calm - N/A   Overcast
12:22 AM 48.2 °F 48.2 °F 100% 30.10 in 5.0 mi Calm Calm - N/A   Overcast
12:28 AM 48.2 °F 48.2 °F 100% 30.10 in 4.0 mi Calm Calm - N/A   Overcast
12:31 AM 48.2 °F 48.2 °F 100% 30.09 in 4.0 mi Calm Calm - N/A   Overcast
12:34 AM 48.2 °F 48.2 °F 100% 30.09 in 4.0 mi Calm Calm - N/A   Overcast
12:55 AM 49.3 °F 48.7 °F 98% 30.08 in 3.0 mi Calm Calm - N/A   Overcast
12:57 AM 50.0 °F 48.2 °F 94% 30.08 in 2.5 mi Calm Calm - N/A   Overcast
1:04 AM 50.0 °F 48.2 °F 94% 30.08 in 3.0 mi Calm Calm - N/A   Overcast
1:14 AM 50.0 °F 48.2 °F 94% 30.09 in 2.5 mi Calm Calm - N/A   Overcast
1:18 AM 50.0 °F 48.2 °F 94% 30.09 in 2.5 mi Calm Calm - N/A   Overcast
1:24 AM 50.0 °F 48.2 °F 94% 30.09 in 2.5 mi Calm Calm - N/A   Light Drizzle
1:34 AM 50.0 °F 50.0 °F 100% 30.09 in 2.5 mi Calm Calm - N/A   Overcast
1:43 AM 50.0 °F 48.2 °F 94% 30.08 in 2.0 mi Calm Calm - N/A   Overcast
1:52 AM 50.0 °F 50.0 °F 100% 30.07 in 2.0 mi Calm Calm - N/A   Overcast
1:55 AM 49.5 °F 49.3 °F 99% 30.07 in 2.0 mi Calm Calm - 0.00 in   Overcast
2:01 AM 50.0 °F 50.0 °F 100% 30.07 in 2.5 mi Calm Calm - N/A   Overcast
2:15 AM 50.0 °F 50.0 °F 100% 30.07 in 2.5 mi Calm Calm - N/A   Overcast
2:27 AM 50.0 °F 50.0 °F 100% 30.07 in 2.5 mi Calm Calm - N/A   Overcast
2:30 AM 50.0 °F 50.0 °F 100% 30.07 in 3.0 mi Calm Calm - N/A   Overcast
2:35 AM 50.0 °F 50.0 °F 100% 30.07 in 2.5 mi Calm Calm - N/A   Overcast
2:41 AM 50.0 °F 50.0 °F 100% 30.06 in 2.5 mi Calm Calm - N/A   Overcast
2:43 AM 50.0 °F 50.0 °F 100% 30.06 in 3.0 mi Calm Calm - N/A   Overcast
2:44 AM 50.0 °F 50.0 °F 100% 30.07 in 3.0 mi Calm Calm - N/A   Overcast
2:55 AM 50.0 °F 49.6 °F 99% 30.06 in 5.0 mi Calm Calm - N/A Thunderstorm Overcast
3:01 AM 50.0 °F 50.0 °F 100% 30.06 in 5.0 mi Calm Calm - N/A Thunderstorm Overcast
3:09 AM 50.0 °F 50.0 °F 100% 30.06 in 5.0 mi Calm Calm - N/A   Overcast
3:37 AM 50.0 °F 50.0 °F 100% 30.06 in 3.0 mi Calm Calm - N/A   Overcast
3:40 AM 50.0 °F 50.0 °F 100% 30.06 in 2.5 mi Calm Calm - N/A   Overcast
3:41 AM 50.0 °F 50.0 °F 100% 30.06 in 2.5 mi Calm Calm - N/A   Overcast
3:42 AM 50.0 °F 50.0 °F 100% 30.06 in 2.0 mi Calm Calm - N/A   Overcast
3:43 AM 50.0 °F 50.0 °F 100% 30.06 in 2.0 mi Calm Calm - N/A   Overcast
3:45 AM 50.0 °F 50.0 °F 100% 30.05 in 1.8 mi Calm Calm - N/A   Overcast
3:47 AM 50.0 °F 50.0 °F 100% 30.05 in 1.5 mi Calm Calm - N/A   Overcast
3:50 AM 50.0 °F 50.0 °F 100% 30.06 in 1.5 mi NNW 3.5 mph - N/A Rain Light Rain
3:55 AM 49.6 °F 49.3 °F 99% 30.06 in 1.5 mi Calm Calm - 0.00 in Rain Light Rain
3:58 AM 50.0 °F 50.0 °F 100% 30.06 in 1.5 mi Calm Calm - N/A   Overcast
3:59 AM 50.0 °F 50.0 °F 100% 30.06 in 1.2 mi Calm Calm - N/A   Overcast
4:03 AM 50.0 °F 50.0 °F 100% 30.05 in 1.2 mi Calm Calm - N/A   Overcast
4:15 AM 50.0 °F 50.0 °F 100% 30.06 in 1.5 mi Calm Calm - N/A   Overcast
4:19 AM 50.0 °F 50.0 °F 100% 30.06 in 1.2 mi Calm Calm - N/A   Overcast
4:24 AM 50.0 °F 50.0 °F 100% 30.06 in 1.0 mi Calm Calm - N/A   Mist
4:29 AM 50.0 °F 50.0 °F 100% 30.06 in 0.8 mi Calm Calm - N/A   Mist
4:30 AM 50.0 °F 50.0 °F 100% 30.07 in 0.8 mi Calm Calm - N/A   Mist
4:42 AM 50.0 °F 50.0 °F 100% 30.08 in 1.0 mi NW 3.5 mph - N/A Rain Light Rain
4:51 AM 50.0 °F 50.0 °F 100% 30.08 in 1.0 mi WNW 3.5 mph - N/A   Mist
4:54 AM 50.0 °F 50.0 °F 100% 30.08 in 1.0 mi WNW 3.5 mph - N/A   Mist
4:55 AM 49.8 °F 49.6 °F 99% 30.08 in 1.0 mi WNW 3.5 mph - 0.00 in   Mist
4:56 AM 50.0 °F 50.0 °F 100% 30.08 in 1.2 mi WNW 4.6 mph - N/A   Overcast
5:17 AM 50.0 °F 50.0 °F 100% 30.08 in 1.0 mi Calm Calm - N/A   Mist
5:21 AM 50.0 °F 50.0 °F 100% 30.07 in 1.0 mi Calm Calm - N/A   Mist
5:28 AM 50.0 °F 50.0 °F 100% 30.07 in 0.8 mi Calm Calm - N/A   Mist
5:29 AM 50.0 °F 50.0 °F 100% 30.07 in 1.0 mi Calm Calm - N/A   Mist
5:36 AM 50.0 °F 50.0 °F 100% 30.06 in 1.0 mi SSE 4.6 mph - N/A   Mist
5:39 AM 50.0 °F 50.0 °F 100% 30.06 in 1.2 mi South 4.6 mph - N/A   Overcast
5:43 AM 50.0 °F 50.0 °F 100% 30.08 in 1.5 mi Calm Calm - N/A   Overcast
5:54 AM 50.0 °F 50.0 °F 100% 30.08 in 1.2 mi Calm Calm - N/A   Overcast
5:55 AM 50.2 °F 50.2 °F 100% 30.09 in 1.2 mi Calm Calm - N/A   Overcast
6:00 AM 50.0 °F 50.0 °F 100% 30.08 in 1.0 mi Calm Calm - N/A   Mist
6:02 AM 50.0 °F 50.0 °F 100% 30.08 in 1.0 mi Calm Calm - N/A   Mist
6:06 AM 50.0 °F 50.0 °F 100% 30.08 in 1.0 mi Calm Calm - N/A   Light Drizzle
6:15 AM 50.0 °F 50.0 °F 100% 30.08 in 0.8 mi Calm Calm - N/A Rain Light Rain
6:16 AM 50.0 °F 50.0 °F 100% 30.08 in 1.0 mi Calm Calm - N/A Rain Light Rain
6:20 AM 50.0 °F 50.0 °F 100% 30.09 in 0.8 mi Calm Calm - N/A Rain Light Rain
6:23 AM 50.0 °F 50.0 °F 100% 30.09 in 1.0 mi Calm Calm - N/A   Light Drizzle
6:28 AM 50.0 °F 50.0 °F 100% 30.09 in 0.8 mi Calm Calm - N/A Rain Light Rain
6:33 AM 50.0 °F 50.0 °F 100% 30.08 in 1.0 mi Calm Calm - N/A Rain Light Rain
6:34 AM 50.0 °F 50.0 °F 100% 30.08 in 1.0 mi Calm Calm - N/A Rain Light Rain
6:44 AM 50.0 °F 50.0 °F 100% 30.09 in 1.0 mi Calm Calm - N/A   Mist
6:50 AM 50.0 °F 50.0 °F 100% 30.09 in 1.2 mi Calm Calm - N/A   Overcast
6:55 AM 50.4 °F 50.4 °F 100% 30.08 in 1.2 mi Calm Calm - 0.01 in   Overcast
7:00 AM 50.0 °F 50.0 °F 100% 30.09 in 1.5 mi Calm Calm - N/A   Overcast
7:02 AM 50.0 °F 50.0 °F 100% 30.09 in 1.5 mi Calm Calm - N/A   Overcast
7:03 AM 50.0 °F 50.0 °F 100% 30.09 in 1.8 mi SSW 3.5 mph - N/A   Overcast
7:04 AM 50.0 °F 50.0 °F 100% 30.09 in 1.8 mi Calm Calm - N/A   Overcast
7:05 AM 50.0 °F 50.0 °F 100% 30.09 in 2.0 mi South 3.5 mph - N/A   Overcast
7:06 AM 50.0 °F 50.0 °F 100% 30.09 in 2.5 mi South 3.5 mph - N/A   Overcast
7:08 AM 50.0 °F 50.0 °F 100% 30.09 in 3.0 mi Calm Calm - N/A   Overcast
7:14 AM 50.0 °F 50.0 °F 100% 30.09 in 5.0 mi Calm Calm - N/A   Overcast
7:27 AM 50.0 °F 50.0 °F 100% 30.09 in 7.0 mi Calm Calm - N/A   Overcast
7:55 AM 50.7 °F 50.7 °F 100% 30.09 in 4.0 mi Calm Calm - N/A   Overcast
7:57 AM 50.0 °F 50.0 °F 100% 30.09 in 3.0 mi Calm Calm - N/A   Overcast
7:59 AM 50.0 °F 50.0 °F 100% 30.09 in 2.5 mi Calm Calm - N/A   Overcast
8:02 AM 50.0 °F 50.0 °F 100% 30.09 in 2.0 mi Calm Calm - N/A   Overcast
8:05 AM 50.0 °F 50.0 °F 100% 30.09 in 2.0 mi Calm Calm - N/A Rain Light Rain
8:08 AM 50.0 °F 50.0 °F 100% 30.09 in 2.5 mi Calm Calm - N/A Rain Light Rain
8:11 AM 50.0 °F 50.0 °F 100% 30.09 in 3.0 mi Calm Calm - N/A Rain Light Rain
8:14 AM 51.8 °F 51.8 °F 100% 30.09 in 4.0 mi Calm Calm - N/A   Overcast
8:16 AM 51.8 °F 51.8 °F 100% 30.09 in 4.0 mi Calm Calm - N/A   Overcast
8:21 AM 51.8 °F 51.8 °F 100% 30.09 in 4.0 mi SSW 3.5 mph - N/A Rain Light Rain
8:35 AM 51.8 °F 51.8 °F 100% 30.10 in 8.0 mi Calm Calm - N/A   Overcast
8:38 AM 51.8 °F 51.8 °F 100% 30.10 in 8.0 mi Calm Calm - N/A   Overcast
8:40 AM 51.8 °F 51.8 °F 100% 30.10 in 9.0 mi Calm Calm - N/A Rain Light Rain
8:55 AM 51.8 °F 51.4 °F 99% 30.09 in 8.0 mi Calm Calm - 0.01 in Rain Light Rain
9:09 AM 51.8 °F 51.8 °F 100% 30.08 in 8.0 mi South 4.6 mph - N/A   Overcast
9:14 AM 51.8 °F 51.8 °F 100% 30.09 in 9.0 mi Calm Calm - N/A   Overcast
9:15 AM 51.8 °F 51.8 °F 100% 30.09 in 9.0 mi Calm Calm - N/A Rain Light Rain
9:27 AM 51.8 °F 51.8 °F 100% 30.09 in 6.0 mi South 3.5 mph - N/A Rain Light Rain
9:55 AM 52.3 °F 51.8 °F 98% 30.07 in 6.0 mi Calm Calm - 0.05 in Rain Light Rain
10:04 AM 51.8 °F 51.8 °F 100% 30.07 in 10.0 mi South 4.6 mph - N/A   Overcast
10:17 AM 51.8 °F 51.8 °F 100% 30.08 in 10.0 mi West 3.5 mph - N/A   Light Drizzle
10:28 AM 53.6 °F 51.8 °F 94% 30.08 in 10.0 mi SW 3.5 mph - N/A   Overcast
10:30 AM 53.6 °F 51.8 °F 94% 30.08 in 10.0 mi SW 4.6 mph - N/A   Light Drizzle
10:42 AM 53.6 °F 51.8 °F 94% 30.07 in 10.0 mi WSW 3.5 mph - N/A   Overcast
10:55 AM 53.6 °F 52.9 °F 97% 30.06 in 10.0 mi Calm Calm - 0.00 in   Overcast
11:14 AM 53.6 °F 53.6 °F 100% 30.06 in 10.0 mi Calm Calm - N/A   Mostly Cloudy
11:23 AM 53.6 °F 53.6 °F 100% 30.05 in 10.0 mi SW 4.6 mph - N/A   Mostly Cloudy
11:49 AM 55.4 °F 53.6 °F 94% 30.04 in 10.0 mi WSW 4.6 mph - N/A   Mostly Cloudy
11:55 AM 55.4 °F 54.3 °F 96% 30.04 in 10.0 mi WSW 5.8 mph - 0.01 in   Overcast
12:09 PM 55.4 °F 53.6 °F 94% 30.03 in 10.0 mi WSW 4.6 mph - N/A   Overcast
12:24 PM 55.4 °F 53.6 °F 94% 30.03 in 10.0 mi WSW 5.8 mph - N/A   Light Drizzle
12:48 PM 55.4 °F 53.6 °F 94% 30.02 in 10.0 mi SW 4.6 mph - N/A   Light Drizzle
12:53 PM 55.4 °F 55.4 °F 100% 30.02 in 10.0 mi SW 3.5 mph - N/A   Overcast
12:55 PM 55.6 °F 54.5 °F 96% 30.01 in 10.0 mi SW 3.5 mph - 0.00 in   Overcast
1:24 PM 55.4 °F 55.4 °F 100% 30.00 in 10.0 mi WSW 3.5 mph - N/A   Overcast
1:32 PM 55.4 °F 55.4 °F 100% 30.00 in 10.0 mi SW 3.5 mph - N/A   Overcast
1:55 PM 56.1 °F 54.7 °F 95% 29.99 in 10.0 mi WSW 4.6 mph - N/A   Overcast
2:02 PM 55.4 °F 55.4 °F 100% 29.98 in 10.0 mi SW 3.5 mph - N/A   Overcast
2:15 PM 55.4 °F 55.4 °F 100% 29.98 in 10.0 mi WSW 3.5 mph - N/A   Overcast
2:20 PM 55.4 °F 55.4 °F 100% 29.99 in 9.0 mi WSW 3.5 mph - N/A   Light Drizzle
2:33 PM 55.4 °F 55.4 °F 100% 29.99 in 5.0 mi West 3.5 mph - N/A Rain Light Rain
2:45 PM 55.4 °F 55.4 °F 100% 30.00 in 4.0 mi West 3.5 mph - N/A Rain Light Rain
2:46 PM 55.4 °F 55.4 °F 100% 30.00 in 4.0 mi West 4.6 mph - N/A Rain Light Rain
2:53 PM 55.4 °F 55.4 °F 100% 30.00 in 2.5 mi West 4.6 mph - N/A Rain Light Rain
2:55 PM 56.1 °F 55.2 °F 97% 30.00 in 2.5 mi West 4.6 mph - 0.02 in Rain Light Rain
2:56 PM 55.4 °F 55.4 °F 100% 30.00 in 2.0 mi West 4.6 mph - N/A Rain Light Rain
3:09 PM 55.4 °F 55.4 °F 100% 29.99 in 2.5 mi Calm Calm - N/A   Drizzle
3:19 PM 55.4 °F 55.4 °F 100% 29.99 in 3.0 mi SSW 3.5 mph - N/A   Light Drizzle
3:21 PM 55.4 °F 55.4 °F 100% 29.99 in 3.0 mi SW 3.5 mph - N/A   Light Drizzle
3:23 PM 55.4 °F 55.4 °F 100% 29.99 in 3.0 mi Calm Calm - N/A   Light Drizzle
3:42 PM 55.4 °F 55.4 °F 100% 29.99 in 6.0 mi South 3.5 mph - N/A Rain Light Rain
3:43 PM 55.4 °F 55.4 °F 100% 29.99 in 7.0 mi Calm Calm - N/A Rain Light Rain
3:55 PM 56.1 °F 55.6 °F 98% 29.99 in 8.0 mi SW 3.5 mph - 0.03 in Rain Light Rain
4:00 PM 55.4 °F 55.4 °F 100% 29.99 in 7.0 mi Calm Calm - N/A Rain Light Rain
4:05 PM 55.4 °F 55.4 °F 100% 29.98 in 9.0 mi South 3.5 mph - N/A Rain Light Rain
4:14 PM 55.4 °F 55.4 °F 100% 29.98 in 10.0 mi SSW 4.6 mph - N/A   Overcast
4:33 PM 57.2 °F 55.4 °F 94% 29.98 in 9.0 mi SSW 4.6 mph - N/A   Overcast
4:42 PM 57.2 °F 55.4 °F 94% 29.98 in 9.0 mi SSW 6.9 mph - N/A Rain Light Rain
4:55 PM 56.5 °F 55.6 °F 97% 29.98 in 8.0 mi SSW 5.8 mph - 0.00 in Rain Light Rain
5:03 PM 57.2 °F 55.4 °F 94% 29.98 in 7.0 mi SW 8.1 mph - N/A Rain Light Rain
5:21 PM 57.2 °F 55.4 °F 94% 29.97 in 7.0 mi SSW 5.8 mph - N/A Rain Light Rain
5:28 PM 57.2 °F 55.4 °F 94% 29.97 in 7.0 mi South 5.8 mph - N/A Rain Light Rain
5:32 PM 57.2 °F 55.4 °F 94% 29.96 in 8.0 mi Variable 3.5 mph - N/A Rain Light Rain
5:35 PM 57.2 °F 55.4 °F 94% 29.96 in 9.0 mi Variable 3.5 mph - N/A Rain Light Rain
5:55 PM 56.8 °F 55.9 °F 97% 29.97 in 10.0 mi SW 4.6 mph - 0.03 in   Light Drizzle
6:04 PM 57.2 °F 55.4 °F 94% 29.97 in 9.0 mi SW 4.6 mph - N/A Rain Light Rain
6:53 PM 57.2 °F 57.2 °F 100% 29.96 in 8.0 mi SSW 4.6 mph - N/A   Overcast
6:55 PM 57.0 °F 56.3 °F 97% 29.96 in 9.0 mi SW 3.5 mph - 0.01 in   Overcast
7:05 PM 57.2 °F 55.4 °F 94% 29.96 in 9.0 mi SSW 3.5 mph - N/A Rain Light Rain
7:21 PM 57.2 °F 55.4 °F 94% 29.96 in 10.0 mi SW 5.8 mph - N/A   Overcast
7:28 PM 57.2 °F 55.4 °F 94% 29.96 in 10.0 mi SSW 6.9 mph - N/A   Light Drizzle
7:55 PM 57.0 °F 56.1 °F 97% 29.95 in 10.0 mi Calm Calm - 0.00 in Rain Light Rain
8:09 PM 57.2 °F 55.4 °F 94% 29.96 in 10.0 mi West 4.6 mph - N/A   Overcast
8:22 PM 57.2 °F 55.4 °F 94% 29.96 in 8.0 mi WSW 3.5 mph - N/A   Overcast
8:32 PM 57.2 °F 55.4 °F 94% 29.95 in 7.0 mi SW 4.6 mph - N/A Rain Light Rain
8:36 PM 57.2 °F 55.4 °F 94% 29.95 in 7.0 mi SW 3.5 mph - N/A Rain Light Rain
8:38 PM 57.2 °F 55.4 °F 94% 29.95 in 7.0 mi SW 3.5 mph - N/A Rain Light Rain
8:55 PM 56.7 °F 56.1 °F 98% 29.94 in 7.0 mi SW 3.5 mph - 0.01 in Rain Light Rain
9:00 PM 57.2 °F 55.4 °F 94% 29.94 in 6.0 mi SW 3.5 mph - N/A Rain Light Rain
9:10 PM 57.2 °F 55.4 °F 94% 29.94 in 7.0 mi WSW 3.5 mph - N/A Rain Light Rain
9:16 PM 57.2 °F 55.4 °F 94% 29.94 in 7.0 mi SSW 3.5 mph - N/A   Overcast
9:25 PM 57.2 °F 55.4 °F 94% 29.94 in 8.0 mi SSW 3.5 mph - N/A   Light Drizzle
9:37 PM 57.2 °F 55.4 °F 94% 29.93 in 9.0 mi Calm Calm - N/A   Overcast
9:55 PM 56.8 °F 56.3 °F 98% 29.93 in 8.0 mi SW 4.6 mph - 0.00 in   Overcast
10:07 PM 57.2 °F 55.4 °F 94% 29.93 in 8.0 mi West 3.5 mph - N/A Rain Light Rain
10:21 PM 57.2 °F 57.2 °F 100% 29.94 in 6.0 mi WSW 3.5 mph - N/A Rain Light Rain
10:43 PM 57.2 °F 55.4 °F 94% 29.94 in 4.0 mi SW 3.5 mph - N/A Rain Rain
10:46 PM 57.2 °F 55.4 °F 94% 29.94 in 3.0 mi SW 3.5 mph - N/A Rain Rain
10:47 PM 57.2 °F 55.4 °F 94% 29.94 in 4.0 mi SW 3.5 mph - N/A Rain Rain
10:55 PM 56.5 °F 56.3 °F 99% 29.93 in 4.0 mi Calm Calm - 0.04 in Rain Light Rain
11:06 PM 57.2 °F 57.2 °F 100% 29.93 in 4.0 mi Calm Calm - N/A Rain Light Rain
11:15 PM 57.2 °F 55.4 °F 94% 29.93 in 5.0 mi Calm Calm - N/A Rain Light Rain
11:29 PM 55.4 °F 55.4 °F 100% 29.93 in 3.0 mi Calm Calm - N/A   Light Drizzle
11:40 PM 55.4 °F 55.4 °F 100% 29.92 in 2.5 mi Calm Calm - N/A Rain Light Rain
11:41 PM 55.4 °F 55.4 °F 100% 29.92 in 2.0 mi Calm Calm - N/A Rain Light Rain
11:42 PM 55.4 °F 55.4 °F 100% 29.92 in 2.0 mi Calm Calm - N/A Rain Light Rain
11:49 PM 55.4 °F 55.4 °F 100% 29.92 in 2.0 mi Calm Calm - N/A   Overcast
11:54 PM 55.4 °F 55.4 °F 100% 29.92 in 2.0 mi Calm Calm - N/A   Overcast
11:55 PM 55.9 °F 55.8 °F 99% 29.91 in 2.0 mi Calm Calm - 0.02 in   Overcast
11:56 PM 55.4 °F 55.4 °F 100% 29.91 in 2.0 mi Calm Calm - N/A   Overcast
11:58 PM 55.4 °F 55.4 °F 100% 29.91 in 2.5 mi Calm Calm - N/A   Overcast